This is the latest recevied weather packets stored in our database for station/object NO9B. If no packets are shown the sender has not sent any weather packets the latest 10 day(s).
| Time | Temp. | Humidity | Pressure | Rain* | Wind** | Luminosity | Snow |
|---|---|---|---|---|---|---|---|
| 1787698737 | 26.67° C | 52% | 1018.2 hPa | 0 mm | - | 19 W/m² | - |
| 1787698433 | 26.67° C | 54% | 1018 hPa | 0 mm | - | 20 W/m² | - |
| 1787698128 | 26.67° C | 52% | 1018.2 hPa | 0 mm | - | 22 W/m² | - |
| 1787697823 | 26.67° C | 52% | 1018 hPa | 0 mm | - | 23 W/m² | - |
| 1787697518 | 27.22° C | 53% | 1018.2 hPa | 0 mm | - | 23 W/m² | - |
| 1787697214 | 27.22° C | 50% | 1018.2 hPa | 0 mm | - | 25 W/m² | - |
| 1787696910 | 28.33° C | 48% | 1018.3 hPa | 0 mm | - | 30 W/m² | - |
| 1787696606 | 27.78° C | 51% | 1018.2 hPa | 0 mm | - | 166 W/m² | - |
| 1787696301 | 27.78° C | 50% | 1018.3 hPa | 0 mm | - | 187 W/m² | - |
| 1787695995 | 27.78° C | 49% | 1018.2 hPa | 0 mm | - | 217 W/m² | - |
| 1787695694 | 27.78° C | 49% | 1018.2 hPa | 0 mm | - | 59 W/m² | - |
| 1787695392 | 27.78° C | 50% | 1018 hPa | 0 mm | - | 60 W/m² | - |
| 1787695086 | 27.78° C | 50% | 1018.3 hPa | 0 mm | - | 72 W/m² | - |
| 1787694784 | 28.33° C | 49% | 1018.2 hPa | 0 mm | - | 274 W/m² | - |
| 1787694481 | 28.33° C | 49% | 1018.3 hPa | 0 mm | - | 285 W/m² | - |
| 1787694180 | 27.78° C | 51% | 1018.2 hPa | 0 mm | - | 298 W/m² | - |
| 1787693876 | 27.78° C | 49% | 1018.2 hPa | 0 mm | - | 311 W/m² | - |
| 1787693572 | 27.78° C | 49% | 1018.2 hPa | 0 mm | - | 322 W/m² | - |
| 1787693268 | 28.33° C | 50% | 1018.3 hPa | 0 mm | - | 330 W/m² | - |
| 1787692963 | 28.33° C | 49% | 1018.4 hPa | 0 mm | - | 85 W/m² | - |
| 1787692658 | 28.33° C | 50% | 1018.6 hPa | 0 mm | - | 372 W/m² | - |
| 1787692354 | 28.89° C | 50% | 1018.5 hPa | 0 mm | - | 392 W/m² | - |
| 1787692048 | 28.89° C | 48% | 1018.5 hPa | 0 mm | - | 407 W/m² | - |
| 1787691748 | 28.89° C | 47% | 1018.5 hPa | 0 mm | - | 403 W/m² | - |
| 1787691446 | 28.89° C | 46% | 1018.5 hPa | 0 mm | - | 404 W/m² | - |
* Rain latest hour (hover to see other rain measurements)
** Current wind speed in m/s (hover to see current wind gust speed)